Wink, TX

8:07 PM CDT on August 20, 2017 (GMT -0500)
Winkler County

Weather History for KINK - May, 2013

Change the Weather History Date:

Thursday, May 9, 2013

  Actual Average Record
Temperature  
Mean Temperature 74 °F -  
Max Temperature 88 °F 87 °F 103 °F (1956)
Min Temperature 61 °F 56 °F 44 °F (1988)
Cooling Degree Days 10    
Growing Degree Days 24 (Base 50)    
Moisture  
Dew Point 24 °F    
Average Humidity 16    
Maximum Humidity 42    
Minimum Humidity 9    
Precipitation  
Precipitation 0.00 in - - ()
Sea Level Pressure  
Sea Level Pressure 29.78 in    
Wind  
Wind Speed 7 mph (WSW)    
Max Wind Speed 14 mph    
Max Gust Speed 29 mph    
Visibility 10 miles    
Events      
Averages and records for this station are not official NWS values.
T = Trace of Precipitation, MM = Missing Value Source: NWS Daily Summary

Daily Weather History Graph

Daily Weather History Graph

Search for Another Location

Airport or City:

Trip Planner

Search our weather history database for the weather conditions in past years. The results will help you decide how hot, cold, wet, or windy it might be!

Date:

Astronomy

May. 09, 2013 Rise Set
Actual Time 7:00 AM CDT 8:38 PM CDT
Civil Twilight 6:33 AM CDT 9:05 PM CDT
Nautical Twilight 6:01 AM CDT 9:37 PM CDT
Astronomical Twilight 5:28 AM CDT 10:10 PM CDT
Moon 6:44 AM CDT (5/9) 8:36 PM CDT (5/9)
Length of Visible Light 14h 31m
Length of Day
13h 38m
Waning Crescent, 0% of the Moon is Illuminated
May 9
Waning Crescent
May 9
New
May 17
First Quarter
May 24
Full
May 31
Last Quarter

Hourly Weather History & Observations

Time (CDT) Temp. Dew Point Humidity Pressure Visibility Wind Dir Wind Speed Gust Speed Precip Events Conditions
12:53 AM 75.0 °F 15.1 °F 10% 29.77 in 10.0 mi SE 9.2 mph 16.1 mph N/A   Clear
1:53 AM 72.0 °F 16.0 °F 12% 29.76 in 10.0 mi South 6.9 mph - N/A   Clear
2:53 AM 69.1 °F 18.0 °F 14% 29.76 in 7.0 mi SSW 4.6 mph - N/A   Clear
3:53 AM 64.0 °F 19.9 °F 18% 29.76 in 4.0 mi Calm Calm - N/A   Haze
4:53 AM 61.0 °F 21.9 °F 22% 29.78 in 7.0 mi Calm Calm - N/A   Clear
5:53 AM 62.1 °F 27.0 °F 26% 29.77 in 10.0 mi Calm Calm - N/A   Clear
6:53 AM 64.9 °F 26.1 °F 23% 29.79 in 10.0 mi ENE 3.5 mph - N/A   Clear
7:53 AM 64.9 °F 41.0 °F 42% 29.80 in 10.0 mi Calm Calm - N/A   Partly Cloudy
8:53 AM 70.0 °F 43.0 °F 38% 29.83 in 10.0 mi Variable 4.6 mph - N/A   Mostly Cloudy
9:53 AM 75.0 °F 37.9 °F 26% 29.83 in 10.0 mi ESE 8.1 mph - N/A   Scattered Clouds
10:53 AM 77.0 °F 21.0 °F 12% 29.83 in 10.0 mi WSW 13.8 mph - N/A   Clear
11:53 AM 82.4 °F 19.4 °F 10% 29.95 in 10.0 mi WSW 10.4 mph 17.3 mph N/A   Clear
12:53 PM 84.9 °F 19.9 °F 9% 29.79 in 10.0 mi WSW 12.7 mph - N/A   Clear
1:53 PM 86.0 °F 21.0 °F 9% 29.78 in 10.0 mi West 8.1 mph 28.8 mph N/A   Clear
2:53 PM 86.0 °F 21.9 °F 10% 29.77 in 10.0 mi NW 6.9 mph 19.6 mph N/A   Clear
3:53 PM 86.0 °F 21.9 °F 10% 29.75 in 10.0 mi SW 11.5 mph 23.0 mph N/A   Clear
4:53 PM 87.1 °F 21.0 °F 9% 29.73 in 10.0 mi West 11.5 mph 18.4 mph N/A   Clear
5:53 PM 88.0 °F 23.0 °F 9% 29.72 in 10.0 mi West 11.5 mph - N/A   Clear
6:53 PM 87.1 °F 23.0 °F 10% 29.71 in 10.0 mi WSW 8.1 mph 17.3 mph N/A   Clear
7:53 PM 84.9 °F 23.0 °F 10% 29.72 in 10.0 mi West 11.5 mph - N/A   Clear
8:53 PM 79.0 °F 23.0 °F 13% 29.73 in 10.0 mi West 6.9 mph - N/A   Clear
9:53 PM 73.0 °F 23.0 °F 15% 29.76 in 10.0 mi WNW 5.8 mph - N/A   Clear
10:53 PM 68.0 °F 23.0 °F 18% 29.78 in 10.0 mi NW 8.1 mph - N/A   Clear
11:53 PM 69.1 °F 23.0 °F 18% 29.78 in 10.0 mi NW 8.1 mph - N/A   Clear